Date String (YYYY-MM-DD hh:mm:ss) UTC,Instrument flags,Ambient pressure (hPa),Sample flow (lpm),Bypass flow (lpm),Sample temperature (°C),Ambient temperature (°C),ASC tube jacket temperature (°C),LED temperature (°C),Box temperature (°C),Sample RH (%),Span deviation,Mass concentration (μg/m³),Mass concentration (μg/m³),Mass concentration (μg/m³)
DateTimeUTC,F1_M11,P_M11,Q1_M11,Q2_M11,T1_M11,T2_M11,T3_M11,T4_M11,T5_M11,U1_M11,ZSPAN_M11,X2_M11,X0_M11,X1_M11
2021-11-13 00:00:00,,0830.7,5.00,0.00,27.5,26.7,00.0,36.5,29.4,10.2,0000.0,0004.19,0012.61,0002.78
2021-11-13 00:01:00,,0830.8,5.00,0.00,27.5,26.7,00.0,36.5,29.4,10.2,0000.0,0004.18,0012.59,0002.78
2021-11-13 00:02:00,,0830.8,5.00,0.00,27.5,26.7,00.0,36.5,29.4,10.2,0000.0,0004.15,0012.11,0002.78
2021-11-13 00:03:00,,0830.8,4.99,0.00,27.5,26.7,00.0,36.5,29.4,10.2,0000.0,0004.09,0012.61,0002.77
2021-11-13 00:04:00,,0830.8,5.01,0.00,27.5,26.7,00.0,36.5,29.4,10.2,0000.0,0004.07,0012.69,0002.79
2021-11-13 00:05:00,,0830.7,4.98,0.00,27.5,26.7,00.0,36.5,29.4,10.2,0000.0,0004.16,0013.70,0002.79
2021-11-13 00:06:00,,0830.7,5.00,0.00,27.5,26.7,00.0,36.5,29.4,10.2,0000.0,0004.23,0014.42,0002.81
2021-11-13 00:07:00,,0830.8,5.02,0.00,27.5,26.7,00.0,36.5,29.4,10.2,0000.0,0004.20,0014.70,0002.83
2021-11-13 00:08:00,,0830.8,5.00,0.00,27.5,26.7,00.0,36.5,29.4,10.2,0000.0,0004.16,0013.92,0002.86
2021-11-13 00:09:00,,0830.8,5.00,0.00,27.5,26.7,00.0,36.5,29.4,10.2,0000.0,0004.16,0014.03,0002.86
2021-11-13 00:10:00,,0830.8,5.00,0.00,27.5,26.7,00.0,36.5,29.4,10.2,0000.0,0004.12,0014.87,0002.87
2021-11-13 00:11:00,,0830.8,5.00,0.00,27.6,26.7,00.0,36.5,29.4,10.2,0000.0,0004.13,0015.51,0002.87
2021-11-13 00:12:00,,0830.8,5.01,0.00,27.5,26.7,00.0,36.5,29.4,10.2,0000.0,0004.16,0015.15,0002.87
2021-11-13 00:13:00,,0830.7,4.99,0.00,27.6,26.7,00.0,36.5,29.4,10.2,0000.0,0004.20,0014.97,0002.89
2021-11-13 00:14:00,,0830.7,5.00,0.00,27.6,26.7,00.0,36.5,29.4,10.2,0000.0,0004.23,0015.77,0002.90
2021-11-13 00:15:00,,0830.7,5.01,0.00,27.5,26.7,00.0,36.5,29.4,10.2,0000.0,0004.31,0015.76,0002.90
2021-11-13 00:16:00,,0830.7,5.00,0.00,27.5,26.7,00.0,36.5,29.4,10.2,0000.0,0004.31,0015.03,0002.90
2021-11-13 00:17:00,,0830.7,4.99,0.00,27.6,26.7,00.0,36.5,29.4,10.2,0000.0,0004.34,0015.10,0002.92
2021-11-13 00:18:00,,0830.8,5.00,0.00,27.6,26.7,00.0,36.5,29.4,10.2,0000.0,0004.37,0015.88,0002.91
2021-11-13 00:19:00,,0830.8,5.00,0.00,27.5,26.7,00.0,36.5,29.4,10.2,0000.0,0004.39,0016.74,0002.89
2021-11-13 00:20:00,,0830.7,5.00,0.00,27.5,26.7,00.0,36.5,29.3,10.2,0000.0,0004.47,0016.91,0002.92
2021-11-13 00:21:00,,0830.6,5.00,0.00,27.5,26.7,00.0,36.5,29.3,10.2,0000.0,0004.51,0017.14,0002.94
2021-11-13 00:22:00,,0830.6,4.99,0.00,27.5,26.6,00.0,36.5,29.3,10.2,0000.0,0004.52,0016.71,0002.96
2021-11-13 00:23:00,,0830.6,5.01,0.00,27.5,26.6,00.0,36.5,29.3,10.2,0000.0,0004.47,0017.50,0002.98
2021-11-13 00:24:00,,0830.6,4.99,0.00,27.5,26.7,00.0,36.5,29.3,10.2,0000.0,0004.44,0017.76,0002.99
2021-11-13 00:25:00,,0830.7,5.01,0.00,27.5,26.7,00.0,36.5,29.3,10.2,0000.0,0004.46,0016.73,0003.00
2021-11-13 00:26:00,,0830.6,4.99,0.00,27.5,26.6,00.0,36.5,29.3,10.2,0000.0,0004.41,0016.51,0003.01
2021-11-13 00:27:00,,0830.6,5.01,0.00,27.5,26.6,00.0,36.5,29.3,10.2,0000.0,0004.31,0017.40,0003.02
2021-11-13 00:28:00,,0830.6,5.00,0.00,27.5,26.7,00.0,36.5,29.3,10.2,0000.0,0004.26,0017.85,0003.01
2021-11-13 00:29:00,,0830.7,5.01,0.00,27.5,26.6,00.0,36.5,29.3,10.2,0000.0,0004.18,0016.82,0003.01
2021-11-13 00:30:00,,0830.7,4.99,0.00,27.5,26.6,00.0,36.5,29.4,10.2,0000.0,0004.20,0015.69,0003.04
2021-11-13 00:31:00,,0830.7,5.00,0.00,27.5,26.6,00.0,36.5,29.3,10.2,0000.0,0004.19,0016.19,0003.05
2021-11-13 00:32:00,,0830.8,5.00,0.00,27.5,26.6,00.0,36.5,29.3,10.2,0000.0,0004.17,0016.08,0003.04
2021-11-13 00:33:00,,0830.8,5.01,0.00,27.5,26.6,00.0,36.5,29.3,10.2,0000.0,0004.19,0016.43,0003.05
2021-11-13 00:34:00,,0830.7,4.99,0.00,27.5,26.6,00.0,36.5,29.3,10.2,0000.0,0004.22,0015.78,0003.05
2021-11-13 00:35:00,,0830.8,5.00,0.00,27.5,26.6,00.0,36.5,29.3,10.2,0000.0,0004.27,0015.73,0003.08
2021-11-13 00:36:00,,0830.8,5.01,0.00,27.5,26.6,00.0,36.5,29.3,10.2,0000.0,0004.32,0016.03,0003.10
2021-11-13 00:37:00,,0830.8,5.01,0.00,27.5,26.6,00.0,36.5,29.3,10.2,0000.0,0004.32,0016.98,0003.11
2021-11-13 00:38:00,,0830.8,4.99,0.00,27.5,26.6,00.0,36.5,29.3,10.2,0000.0,0004.39,0016.29,0003.12
2021-11-13 00:39:00,,0830.8,5.01,0.00,27.5,26.6,00.0,36.5,29.3,10.2,0000.0,0004.36,0015.22,0003.13
2021-11-13 00:40:00,,0830.7,4.99,0.00,27.5,26.6,00.0,36.5,29.3,10.2,0000.0,0004.44,0015.67,0003.14
2021-11-13 00:41:00,,0830.8,5.00,0.00,27.5,26.6,00.0,36.5,29.3,10.2,0000.0,0004.44,0015.45,0003.13
2021-11-13 00:42:00,,0830.8,5.00,0.00,27.5,26.6,00.0,36.5,29.3,10.2,0000.0,0004.46,0016.05,0003.14
2021-11-13 00:43:00,,0830.8,5.01,0.00,27.5,26.6,00.0,36.5,29.3,10.2,0000.0,0004.51,0016.08,0003.15
2021-11-13 00:44:00,,0830.8,5.01,0.00,27.5,26.6,00.0,36.5,29.3,10.2,0000.0,0004.48,0015.47,0003.16
2021-11-13 00:45:00,,0830.9,4.99,0.00,27.5,26.6,00.0,36.5,29.3,10.2,0000.0,0004.47,0016.17,0003.15
2021-11-13 00:46:00,,0830.9,5.01,0.00,27.5,26.6,00.0,36.5,29.3,10.2,0000.0,0004.47,0016.22,0003.13
2021-11-13 00:47:00,,0830.9,5.01,0.00,27.5,26.6,00.0,36.5,29.2,10.2,0000.0,0004.42,0017.43,0003.13
2021-11-13 00:48:00,,0830.9,5.00,0.00,27.4,26.6,00.0,36.5,29.2,10.2,0000.0,0004.45,0016.29,0003.13
2021-11-13 00:49:00,,0830.9,5.01,0.00,27.4,26.6,00.0,36.4,29.2,10.2,0000.0,0004.46,0016.23,0003.13
2021-11-13 00:50:00,,0830.9,5.00,0.00,27.4,26.5,00.0,36.4,29.2,10.2,0000.0,0004.46,0016.55,0003.13
2021-11-13 00:51:00,,0830.9,5.00,0.00,27.4,26.5,00.0,36.4,29.2,10.2,0000.0,0004.42,0017.38,0003.13
2021-11-13 00:52:00,,0830.8,4.99,0.00,27.4,26.5,00.0,36.4,29.2,10.2,0000.0,0004.44,0017.97,0003.12
2021-11-13 00:53:00,,0830.8,5.01,0.00,27.4,26.5,00.0,36.4,29.2,10.2,0000.0,0004.45,0018.04,0003.11
2021-11-13 00:54:00,,0830.8,4.99,0.00,27.4,26.5,00.0,36.4,29.2,10.2,0000.0,0004.40,0017.30,0003.11
2021-11-13 00:55:00,,0830.7,5.01,0.00,27.4,26.5,00.0,36.4,29.2,10.2,0000.0,0004.42,0017.79,0003.10
2021-11-13 00:56:00,,0830.8,5.00,0.00,27.4,26.5,00.0,36.4,29.3,10.2,0000.0,0004.46,0017.88,0003.10
2021-11-13 00:57:00,,0830.7,5.01,0.00,27.4,26.6,00.0,36.4,29.2,10.2,0000.0,0004.52,0021.14,0003.11
2021-11-13 00:58:00,,0830.7,4.99,0.00,27.4,26.6,00.0,36.4,29.2,10.2,0000.0,0004.57,0020.86,0003.10
2021-11-13 00:59:00,,0830.8,4.99,0.00,27.4,26.6,00.0,36.4,29.2,10.2,0000.0,0004.55,0021.75,0003.11
